This demonstration page uses our WeatherBlox Daily Observations layout. Learn more.

Left ArrowRight Arrow

30.00354, -91.81873

Hourly Observations for December 24, 2015

Temp ( °F °C ) Dew Point ( °F °C ) Humidity (%) Winds ( mph kmh ) Pressure ( in mb ) Visibility ( mi km ) Precip ( " mm )
12:42 am 00:42 Cloudy with Mist and Fog 71 21.7 70 21.1 96 96 SSW 7 11 29.80 1009 2 3 0.00 0.00
12:51 am 00:51 Cloudy with Mist and Fog 72 22 70 21 94 94 SSW 3 6 29.80 1009 3 4 0.00 0.00
12:53 am 00:53 Cloudy with Mist and Fog 71 21.7 70 21.1 96 96 SW 5 7 29.80 1009 3 4 0.00 0.00
1:06 am 01:06 Cloudy with Mist and Fog 71 21.7 70 21.1 96 96 SSW 6 9 29.80 1009 1 2 0.00 0.00
1:14 am 01:14 Mostly Cloudy with Fog 71 21.7 70 21.1 96 96 S 5 7 29.80 1009 1 1 0.00 0.00
1:41 am 01:41 Mostly Cloudy with Fog 71 21.7 70 21.1 96 96 SSW 6 9 29.80 1009 0 0 0.00 0.00
1:48 am 01:48 Mostly Cloudy with Fog 72 22 70 21 94 94 SSW 7 11 29.80 1009 1 1 0.00 0.00
1:53 am 01:53 Mostly Cloudy with Fog 71 21.7 70 21.1 96 96 SSW 6 9 29.81 1010 1 1 0.00 0.00
2:17 am 02:17 Mostly Cloudy with Fog 71 21.7 70 21.1 96 96 SSW 5 7 29.83 1010 0 0 0.00 0.00
2:53 am 02:53 Mostly Cloudy with Fog 71 21.7 70 21.1 96 96 WSW 5 7 29.83 1010 0 0 0.00 0.00
3:19 am 03:19 Mostly Cloudy with Fog 70 21.1 70 21.1 100 100 SSW 3 6 29.83 1010 1 1 0.00 0.00
3:53 am 03:53 Mostly Cloudy with Fog 70 21.1 70 21.1 100 100 Calm 29.84 1010 0 0 0.00 0.00
4:53 am 04:53 Mostly Cloudy with Fog 70 21.1 69 20.6 97 97 Calm 29.85 1011 0 0 0.00 0.00
5:20 am 05:20 Mostly Cloudy with Fog 70 21.1 69 20.6 97 97 E 3 6 29.85 1011 1 1 0.00 0.00
5:48 am 05:48 Mostly Cloudy with Fog 72 22 70 21 94 94 E 3 6 29.88 1012 0 0 0.00 0.00
5:53 am 05:53 Mostly Cloudy with Fog 71 21.7 70 21.1 96 96 E 3 6 29.87 1011 0 0 0.00 0.00
6:53 am 06:53 Mostly Cloudy with Fog 71 21.7 70 21.1 96 96 E 6 9 29.88 1012 0 0 0.00 0.00
7:53 am 07:53 Mostly Cloudy with Fog 72 22.2 71 21.7 97 97 SE 7 11 29.90 1013 0 0 0.00 0.00
8:29 am 08:29 Mostly Cloudy with Fog 72 22.2 72 22.2 100 100 SE 7 11 29.91 1013 1 1 0.00 0.00
8:53 am 08:53 Mostly Cloudy with Mist and Fog 73 22.8 72 22.2 96 96 SSE 7 11 29.92 1013 1 1 0.00 0.00
8:59 am 08:59 Cloudy with Mist and Fog 73 22.8 72 22.2 96 96 SSE 6 9 29.91 1013 2 3 0.00 0.00
9:09 am 09:09 Cloudy with Mist and Fog 73 22.8 72 22.2 96 96 SSE 8 13 29.94 1014 4 6 0.00 0.00
9:50 am 09:50 Cloudy with Mist and Fog 75 24 73 23 94 94 S 6 9 29.94 1014 6 10 0.00 0.00
9:53 am 09:53 Cloudy with Mist and Fog 75 23.9 74 23.3 96 96 S 8 13 29.94 1014 6 10 0.00 0.00
10:00 am 10:00 Cloudy with Mist and Fog 75 23.9 74 23.3 96 96 S 9 15 29.94 1014 6 10 0.00 0.00
10:53 am 10:53 Cloudy 78 25.6 75 23.9 90 90 S 15 24 29.93 1014 9 14 0.00 0.00
11:53 am 11:53 Cloudy 78 25.6 75 23.9 90 90 S 13 20 29.92 1013 8 13 0.00 0.00
12:53 pm 12:53 Cloudy 79 26.1 75 23.9 88 88 S 14 22 29.90 1013 8 13 0.00 0.03
1:09 pm 13:09 Cloudy 80 26.7 75 23.9 85 85 S 20 31 29.91 1013 8 13 0.00 0.00
1:53 pm 13:53 Cloudy 80 26.7 74 23.3 82 82 S 17 28 29.89 1012 7 11 0.00 0.00
2:11 pm 14:11 Cloudy 78 25.6 74 23.3 87 87 S 15 24 29.91 1013 7 11 0.00 0.00
2:35 pm 14:35 Cloudy 79 26.1 74 23.3 85 85 S 17 28 29.91 1013 7 11 0.00 0.00
2:53 pm 14:53 Cloudy 79 26.1 74 23.3 85 85 S 17 28 29.90 1012 7 11 0.00 0.00
3:31 pm 15:31 Cloudy 79 26.1 74 23.3 85 85 S 16 26 29.91 1013 7 11 0.00 0.00
3:53 pm 15:53 Cloudy with Mist and Fog 78 25.6 74 23.3 87 87 S 15 24 29.90 1012 6 10 0.00 0.00
4:08 pm 16:08 Cloudy with Mist and Fog 78 25.6 74 23.3 87 87 S 12 19 29.91 1013 6 10 0.00 0.00
4:46 pm 16:46 Cloudy with Mist and Fog 77 25 74 23.3 90 90 S 13 20 29.91 1013 6 10 0.00 0.00
4:53 pm 16:53 Cloudy with Mist and Fog 76 24.4 74 23.3 94 94 S 12 19 29.91 1013 6 10 0.00 0.00
5:53 pm 17:53 Cloudy with Mist and Fog 75 23.9 73 22.8 94 94 S 10 17 29.93 1014 6 10 0.00 0.00
6:03 pm 18:03 Cloudy with Mist and Fog 75 23.9 73 22.8 94 94 S 10 17 29.94 1014 6 10 0.00 0.00
6:17 pm 18:17 Cloudy 75 23.9 73 22.8 94 94 S 9 15 29.94 1014 7 11 0.00 0.00
6:53 pm 18:53 Cloudy with Mist and Fog 75 23.9 73 22.8 94 94 S 9 15 29.95 1014 6 10 0.00 0.00
7:06 pm 19:06 Cloudy with Mist and Fog 75 23.9 73 22.8 94 94 S 8 13 29.97 1015 6 10 0.00 0.00
7:16 pm 19:16 Cloudy with Mist and Fog 75 23.9 73 22.8 94 94 S 7 11 29.97 1015 6 10 0.00 0.00
7:30 pm 19:30 Cloudy with Light Rain 75 23.9 73 22.8 94 94 SSE 8 13 29.97 1015 6 10 0.00 0.03
7:37 pm 19:37 Cloudy 75 23.9 73 22.8 94 94 SSE 7 11 29.97 1015 7 11 0.00 0.03
7:53 pm 19:53 Cloudy 75 23.9 73 22.8 94 94 SSE 9 15 29.97 1015 7 11 0.00 0.03
7:59 pm 19:59 Cloudy with Mist and Fog 75 23.9 73 22.8 94 94 SSE 10 17 29.97 1015 6 10 0.00 0.00
8:17 pm 20:17 Cloudy 75 23.9 74 23.3 96 96 SSE 12 19 29.97 1015 7 11 0.00 0.00
8:53 pm 20:53 Cloudy 76 24.4 74 23.3 94 94 S 8 13 30.00 1016 7 11 0.00 0.00
9:14 pm 21:14 Cloudy 76 24.4 74 23.3 94 94 S 12 19 30.00 1016 7 11 0.00 0.00
9:43 pm 21:43 Cloudy with Light Rain 75 23.9 74 23.3 96 96 S 13 20 30.00 1016 6 10 0.00 0.03
9:53 pm 21:53 Cloudy 75 23.9 73 22.8 94 94 S 10 17 30.00 1016 7 11 0.00 0.03
9:57 pm 21:57 Cloudy 75 23.9 73 22.8 94 94 S 10 17 30.00 1016 7 11 0.00 0.00
10:37 pm 22:37 Cloudy 76 24.4 74 23.3 94 94 S 13 20 30.00 1016 7 11 0.00 0.00
10:53 pm 22:53 Cloudy 76 24.4 74 23.3 94 94 S 12 19 30.01 1016 7 11 0.00 0.00
11:53 pm 23:53 Cloudy 75 23.9 74 23.3 96 96 S 14 22 30.01 1016 7 11 0.00 0.00

Powered by Vaisala Xweather